• în România
  • Lista ţărilor
  • Pe 7 zile
  • Temperatura apei
  • Hartă satelitară
  • Meteo pe hartă
  • Widget-uri
  • user-avatar
    Intrare

    Meteo pe oră la Karlovac

    Astăzi, 17 Octombrie, Marţi

    Timp Temperatura Precipitaţii Vânt Presiune Umiditate
    00:00 +13°C° 0 mm 0 m/s 748 mmHg 86%
    01:00 +13°C° 0 mm 0 m/s 748 mmHg 86%
    02:00 +13°C° 0 mm 0 m/s 748 mmHg 87%
    03:00 +13°C° 0 mm 0 m/s 748 mmHg 87%
    04:00 +12°C° 0 mm 0 m/s 748 mmHg 87%
    05:00 +12°C° 0 mm 0 m/s 748 mmHg 86%
    06:00 +13°C° 0 mm 0 m/s 748 mmHg 85%
    07:00 +12°C° 0 mm 0 m/s 748 mmHg 79%
    08:00 +15°C° 0 mm 0 m/s 748 mmHg 71%
    09:00 +17°C° 0 mm 0 m/s 748 mmHg 63%
    10:00 +20°C° 0 mm 0 m/s 748 mmHg 55%
    11:00 +21°C° 0 mm 0 m/s 748 mmHg 53%
    12:00 +24°C° 0 mm 1 m/s 748 mmHg 51%
    13:00 +25°C° 0 mm 1 m/s 747 mmHg 49%
    14:00 +24°C° 0 mm 1 m/s 747 mmHg 55%
    15:00 +23°C° 0 mm 1 m/s 746 mmHg 60%
    16:00 +22°C° 0 mm 1 m/s 746 mmHg 66%
    17:00 +20°C° 0 mm 1 m/s 746 mmHg 72%
    18:00 +16°C° 0 mm 0 m/s 746 mmHg 78%
    19:00 +15°C° 0 mm 0 m/s 746 mmHg 84%
    20:00 +15°C° 0 mm 0 m/s 746 mmHg 83%
    21:00 +14°C° 0 mm 0 m/s 745 mmHg 83%
    22:00 +15°C° 0 mm 1 m/s 745 mmHg 83%
    23:00 +15°C° 0 mm 1 m/s 745 mmHg 82%

    Mâine, 18 Octombrie, Miercuri

    Timp Temperatura Precipitaţii Vânt Presiune Umiditate
    00:00 +14°C° 0 mm 1 m/s 745 mmHg 82%
    01:00 +14°C° 0 mm 1 m/s 745 mmHg 81%
    02:00 +13°C° 0 mm 1 m/s 744 mmHg 80%
    03:00 +13°C° 0 mm 1 m/s 744 mmHg 78%
    04:00 +13°C° 0 mm 1 m/s 743 mmHg 77%
    05:00 +13°C° 0 mm 1 m/s 743 mmHg 76%
    06:00 +12°C° 0 mm 1 m/s 743 mmHg 74%
    07:00 +12°C° 0 mm 1 m/s 743 mmHg 73%
    08:00 +15°C° 0 mm 1 m/s 743 mmHg 64%
    09:00 +19°C° 0 mm 1 m/s 743 mmHg 56%
    10:00 +21°C° 0 mm 1 m/s 743 mmHg 48%
    11:00 +21°C° 0 mm 2 m/s 743 mmHg 46%
    12:00 +23°C° 0 mm 2 m/s 743 mmHg 44%
    13:00 +24°C° 0 mm 2 m/s 743 mmHg 42%
    14:00 +23°C° 0 mm 2 m/s 742 mmHg 47%
    15:00 +21°C° 0 mm 2 m/s 742 mmHg 52%
    16:00 +20°C° 0 mm 2 m/s 742 mmHg 57%
    17:00 +18°C° 0 mm 2 m/s 742 mmHg 63%
    18:00 +16°C° 0 mm 1 m/s 742 mmHg 69%
    19:00 +14°C° 0 mm 1 m/s 742 mmHg 76%
    20:00 +14°C° 0 mm 1 m/s 742 mmHg 77%
    21:00 +13°C° 0 mm 1 m/s 742 mmHg 78%
    22:00 +13°C° 0 mm 1 m/s 742 mmHg 79%
    23:00 +13°C° 0 mm 1 m/s 742 mmHg 78%

    Poimâine, 19 Octombrie, Joi

    Timp Temperatura Precipitaţii Vânt Presiune Umiditate
    00:00 +12°C° 0 mm 1 m/s 742 mmHg 78%
    01:00 +12°C° 0 mm 1 m/s 742 mmHg 78%
    02:00 +12°C° 0 mm 1 m/s 742 mmHg 78%
    03:00 +12°C° 0 mm 1 m/s 741 mmHg 78%
    04:00 +12°C° 0 mm 1 m/s 741 mmHg 78%
    05:00 +12°C° 0 mm 1 m/s 741 mmHg 78%
    06:00 +12°C° 0 mm 1 m/s 741 mmHg 78%
    07:00 +12°C° 0 mm 1 m/s 741 mmHg 78%
    08:00 +14°C° 0 mm 1 m/s 742 mmHg 70%
    09:00 +18°C° 0 mm 1 m/s 742 mmHg 61%
    10:00 +21°C° 0 mm 1 m/s 742 mmHg 53%
    11:00 +22°C° 0 mm 1 m/s 742 mmHg 50%
    12:00 +23°C° 0 mm 2 m/s 742 mmHg 47%
    13:00 +24°C° 0 mm 2 m/s 742 mmHg 44%
    14:00 +23°C° 0 mm 2 m/s 741 mmHg 49%
    15:00 +22°C° 0 mm 1 m/s 741 mmHg 54%
    16:00 +21°C° 0 mm 1 m/s 741 mmHg 59%
    17:00 +19°C° 0 mm 1 m/s 741 mmHg 64%
    18:00 +16°C° 0 mm 1 m/s 741 mmHg 70%
    19:00 +14°C° 0 mm 1 m/s 741 mmHg 76%
    20:00 +14°C° 0 mm 1 m/s 742 mmHg 78%
    21:00 +13°C° 0 mm 1 m/s 742 mmHg 79%
    22:00 +13°C° 0 mm 1 m/s 742 mmHg 80%
    23:00 +13°C° 0 mm 1 m/s 742 mmHg 80%

    20 Octombrie, Vineri

    Timp Temperatura Precipitaţii Vânt Presiune Umiditate
    00:00 +12°C° 0 mm 1 m/s 742 mmHg 81%
    01:00 +12°C° 0 mm 1 m/s 742 mmHg 81%
    02:00 +12°C° 0 mm 1 m/s 742 mmHg 81%
    03:00 +12°C° 0 mm 1 m/s 742 mmHg 82%
    04:00 +11°C° 0 mm 1 m/s 742 mmHg 82%
    05:00 +11°C° 0 mm 1 m/s 742 mmHg 82%
    06:00 +12°C° 0 mm 1 m/s 742 mmHg 82%
    07:00 +12°C° 0 mm 1 m/s 743 mmHg 82%
    08:00 +14°C° 0 mm 1 m/s 743 mmHg 73%
    09:00 +18°C° 0 mm 1 m/s 743 mmHg 64%
    10:00 +21°C° 0 mm 1 m/s 744 mmHg 55%
    11:00 +22°C° 0 mm 1 m/s 743 mmHg 52%
    12:00 +22°C° 0 mm 1 m/s 743 mmHg 49%
    13:00 +23°C° 0 mm 2 m/s 743 mmHg 47%
    14:00 +23°C° 0 mm 1 m/s 743 mmHg 51%
    15:00 +22°C° 0 mm 1 m/s 743 mmHg 56%
    16:00 +21°C° 0 mm 1 m/s 743 mmHg 61%
    17:00 +19°C° 0 mm 1 m/s 743 mmHg 67%
    18:00 +16°C° 0 mm 1 m/s 743 mmHg 74%
    19:00 +14°C° 0 mm 1 m/s 743 mmHg 80%
    20:00 +14°C° 0 mm 1 m/s 744 mmHg 81%
    21:00 +13°C° 0 mm 1 m/s 744 mmHg 83%
    22:00 +13°C° 0 mm 1 m/s 744 mmHg 84%
    23:00 +13°C° 0 mm 1 m/s 744 mmHg 85%

    21 Octombrie, Sâmbătă

    Timp Temperatura Precipitaţii Vânt Presiune Umiditate
    00:00 +12°C° 0 mm 1 m/s 744 mmHg 85%
    01:00 +12°C° 0 mm 1 m/s 744 mmHg 86%
    02:00 +12°C° 0 mm 1 m/s 744 mmHg 86%
    03:00 +12°C° 0 mm 1 m/s 744 mmHg 87%
    04:00 +11°C° 0 mm 1 m/s 744 mmHg 87%
    05:00 +11°C° 0 mm 1 m/s 744 mmHg 86%
    06:00 +11°C° 0 mm 1 m/s 744 mmHg 86%
    07:00 +11°C° 0 mm 1 m/s 744 mmHg 85%
    08:00 +14°C° 0 mm 1 m/s 744 mmHg 76%
    09:00 +18°C° 0 mm 1 m/s 744 mmHg 66%
    10:00 +20°C° 0 mm 1 m/s 744 mmHg 56%
    11:00 +21°C° 0 mm 1 m/s 744 mmHg 52%
    12:00 +22°C° 0 mm 1 m/s 743 mmHg 49%
    13:00 +23°C° 0 mm 2 m/s 743 mmHg 45%
    14:00 +22°C° 0 mm 1 m/s 743 mmHg 50%
    15:00 +22°C° 0 mm 1 m/s 743 mmHg 56%
    16:00 +21°C° 0 mm 1 m/s 742 mmHg 61%
    17:00 +19°C° 0 mm 1 m/s 742 mmHg 67%
    18:00 +16°C° 0 mm 1 m/s 743 mmHg 73%
    19:00 +14°C° 0 mm 1 m/s 743 mmHg 79%
    20:00 +14°C° 0 mm 1 m/s 743 mmHg 81%
    21:00 +13°C° 0 mm 1 m/s 743 mmHg 83%
    22:00 +13°C° 0 mm 1 m/s 743 mmHg 85%
    23:00 +13°C° 0 mm 1 m/s 743 mmHg 85%

    22 Octombrie, Duminică

    Timp Temperatura Precipitaţii Vânt Presiune Umiditate
    00:00 +13°C° 0 mm 1 m/s 743 mmHg 85%
    01:00 +12°C° 0 mm 1 m/s 742 mmHg 86%
    02:00 +12°C° 0 mm 1 m/s 742 mmHg 85%
    03:00 +12°C° 0 mm 1 m/s 742 mmHg 85%
    04:00 +12°C° 0 mm 1 m/s 742 mmHg 85%
    05:00 +12°C° 0 mm 1 m/s 742 mmHg 85%
    06:00 +12°C° 0 mm 1 m/s 741 mmHg 85%
    07:00 +12°C° 0 mm 1 m/s 741 mmHg 84%
    08:00 +15°C° 0 mm 1 m/s 741 mmHg 77%
    09:00 +18°C° 0 mm 1 m/s 741 mmHg 69%
    10:00 +20°C° 0 mm 1 m/s 741 mmHg 61%
    11:00 +20°C° 0 mm 1 m/s 741 mmHg 61%
    12:00 +21°C° 0 mm 1 m/s 740 mmHg 61%
    13:00 +20°C° 0 mm 2 m/s 740 mmHg 61%
    14:00 +21°C° 0,1 mm 1 m/s 739 mmHg 67%
    15:00 +20°C° 0,1 mm 1 m/s 739 mmHg 72%
    16:00 +19°C° 0,1 mm 1 m/s 739 mmHg 77%
    17:00 +18°C° 0,5 mm 1 m/s 739 mmHg 81%
    18:00 +16°C° 0,5 mm 1 m/s 739 mmHg 85%
    19:00 +15°C° 0,5 mm 1 m/s 739 mmHg 89%
    20:00 +14°C° 4,4 mm 2 m/s 740 mmHg 91%
    21:00 +12°C° 4,4 mm 2 m/s 740 mmHg 93%
    22:00 +10°C° 4,4 mm 3 m/s 741 mmHg 95%
    23:00 +9°C° 1,2 mm 3 m/s 741 mmHg 94%
    Arată mai mult